Regional Weather Roundup
Issued by NWS

Home | Current Version | Previous Version | Graphics & Text | Print | Product List | Glossary On
Versions: 1 2 3 4 5 6 7 8 9 10 11 12 13 14 15 16 17 18 19 20 21 22 23 24 25 26 27 28 29 30 31 32 33 34 35 36 37 38 39 40 41 42 43 44 45 46 47 48 49 50
609
ASUS45 KCYS 290710
RWRWY

WYOMING REGIONAL WEATHER ROUNDUP
NATIONAL WEATHER SERVICE CHEYENNE WY
100 AM MDT SUN MAY 29 2016

NOTE:  "FAIR" INDICATES FEW OR NO CLOUDS BELOW 12,000 FEET
WITH NO SIGNIFICANT WEATHER AND/OR OBSTRUCTIONS TO VISIBILITY.

WYZ001-290800-
YELLOWSTONE NATIONAL PARK

CITY           SKY/WX    TMP DP  RH WIND       PRES   REMARKS
LK YELLOWSTONE   N/A     30  26  85 CALM      30.24S
W YELLOWSTONE  NOT AVBL

$$
WYZ002>013-054>058-071-098>099-290800-
NORTHERN WYOMING

CITY           SKY/WX    TMP DP  RH WIND       PRES   REMARKS
JACKSON        FAIR      34  30  86 N6        30.19R WCI  29
CODY           FAIR      48  41  76 S5        30.10S
GREYBULL       CLOUDY    57  42  57 W9        30.05R
WORLAND        FAIR      51  43  74 W5        30.06R
SHERIDAN       FAIR      48  43  82 S5        30.07S
BUFFALO        MOCLDY    51  42  71 S6        30.11R
GILLETTE       MOCLDY    51  43  74 SE5       30.07F
HULETT         FAIR      46  41  81 W3        30.10R
NEWCASTLE      FAIR      46  41  81 CALM      30.11S

$$
WYZ014>020-022>026-101>103-290800-
CENTRAL WYOMING

CITY           SKY/WX    TMP DP  RH WIND       PRES   REMARKS
BIG PINEY      FAIR      38  30  73 E6        30.20S WCI  33
PINEDALE       FAIR      34  30  86 NW5       30.21S WCI  30
DUBOIS         FAIR      37  21  52 W13       30.18S WCI  29
LANDER         FAIR      52  25  35 SW15      30.09S
RIVERTON       FAIR      48  29  47 NW12      30.10R
CASPER         FAIR      43  39  86 NW7       30.09R
DOUGLAS          N/A    N/A N/A N/A MISG      30.10F

$$
WYZ021-027>030-104>119-290800-
SOUTHERN WYOMING

CITY           SKY/WX    TMP DP  RH WIND       PRES   REMARKS
EVANSTON       FAIR      49  27  42 E3        30.20S
KEMMERER         N/A     39  32  75 N5        30.21S
FORT BRIDGER   SUNNY     45  32  61 W7        30.24R
ROCK SPRINGS   FAIR      47  36  65 W12       30.19S
DIXON          FAIR      47  38  70 E8        30.23S
RAWLINS        FAIR      45  34  65 SW7       30.18S
SARATOGA       FAIR      43  36  75 S10G17    30.21S
LARAMIE        FAIR      44  35  70 SW13      30.19F
CHEYENNE       FAIR      48  39  71 SW9       30.16S
TORRINGTON     FAIR      48  45  89 NE7       30.07F
PINE BLUFFS    FAIR      45  43  93 CALM      30.14R

$$




USA.gov is the U.S. government's official web portal to all federal, state and local government web resources and services.